Tracking 18843 objects as of 20-November-2017
HD Live streaming from Space Station
objects crossing your sky now

PEGASUS

Track PEGASUS now!
10-day predictions
PEGASUS is classified as:


NORAD ID: 42784
Int'l Code: 2017-036V
Perigee: 499.9 km
Apogee: 519.5 km
Inclination: 97.4 °
Period: 94.7 minutes
Semi major axis: 6880 km
RCS: Unknown
Launch date: June 23, 2017
Source: (ASRA)
Launch site: SRIHARIKOTA (SRI)
Uplink (MHz):
Downlink (MHz): 436.670
Beacon (MHz):
Mode: 9600bps GMSK
Call sign: ON03AT
Status: Active

aabbcc
Your satellite tracking list
Your tracking list is empty




NASA's NSSDC Master Catalog

Two Line Element Set (TLE):
1 42784U 17036V   17323.76434593 +.00002216 +00000-0 +10254-3 0  9995
2 42784 097.4316 021.6754 0014230 090.8598 269.4268 15.21097132022676
Source of the keplerian elements: AFSPC